PBO Station Position Time Series. Reference Frame : NAM14
Format Version,1.1.1
4-character ID,NEAH
Station name,NEAH_PNGA_WA1995
Begin Date, 1996-01-01
End Date, 2023-06-26
Release Date, 2023-06-27
Reference position, 48.2978545872 North Latitude, -124.6249074794 East Longitude, 459.89651 meters elevation,
Date, North (mm), East (mm), Vertical (mm), North Std. Deviation (mm), East Std. Deviation (mm),              Vertical Std. Deviation (mm), Quality,
1996-01-01,0.00, 0.00, 0.00, 3.55, 2.50, 11.40, repro,
1996-01-02,-1.46, 1.44, 11.70, 3.45, 2.50, 11.08, repro,
1996-01-03,-2.47, -0.07, 26.13, 3.30, 2.46, 10.64, repro,
1996-01-04,-0.19, 0.05, 16.56, 2.74, 1.99, 9.30, repro,
1996-01-05,0.45, -0.08, 19.73, 3.62, 2.56, 11.43, repro,
1996-01-06,0.66, -1.54, 9.69, 3.25, 2.46, 10.78, repro,
1996-01-07,-1.32, -2.37, 19.78, 3.41, 2.51, 11.20, repro,
1996-01-08,-0.59, 3.04, 17.42, 3.47, 2.54, 11.50, repro,
1996-01-09,0.90, -2.19, 18.10, 3.28, 2.44, 10.79, repro,
1996-01-10,-0.46, -1.42, 15.54, 3.41, 2.50, 11.07, repro,
1996-01-11,-1.11, -2.04, 13.48, 3.49, 2.48, 11.16, repro,
1996-01-14,-2.07, -1.92, 11.76, 3.62, 2.60, 11.78, repro,
1996-01-15,0.01, -3.60, 9.93, 3.63, 2.61, 11.62, repro,
1996-01-16,-2.17, -1.92, 20.20, 3.74, 2.62, 12.03, repro,
1996-01-17,-7.02, -1.22, 14.14, 3.70, 2.62, 11.73, repro,
1996-01-18,-2.11, -2.65, 17.67, 3.56, 2.63, 11.37, repro,
1996-01-19,-2.01, -2.55, 19.39, 3.65, 2.67, 11.74, repro,
1996-01-20,-2.31, -1.28, 17.87, 3.48, 2.55, 11.14, repro,
1996-01-21,-4.56, -6.16, 55.72, 4.88, 3.29, 15.52, repro,
1996-01-26,-3.60, -5.26, 56.78, 3.65, 2.75, 11.61, repro,
1996-01-29,-15.85, -9.49, 64.39, 2.89, 2.17, 8.96, repro,
1996-01-30,-17.32, -10.25, 60.87, 4.62, 3.46, 14.64, repro,
1996-01-31,-15.77, -10.27, 57.91, 2.83, 2.12, 8.76, repro,
1996-02-01,-10.17, -6.77, 56.31, 2.64, 1.87, 8.26, repro,
1996-02-02,-10.53, -6.57, 49.76, 2.64, 1.90, 8.30, repro,
1996-02-03,-6.13, -4.70, 41.33, 2.62, 1.96, 8.62, repro,
1996-02-04,-1.84, -3.09, 8.62, 2.59, 1.86, 8.50, repro,
1996-02-05,-1.70, -3.22, 21.75, 2.59, 1.92, 8.41, repro,
1996-02-06,-0.91, -2.38, 24.95, 2.65, 1.93, 8.52, repro,
1996-02-07,-1.74, -3.24, 12.18, 2.47, 1.79, 8.26, repro,
1996-02-08,-2.61, -2.71, 12.08, 2.53, 1.84, 8.12, repro,
1996-02-09,8.80, -1.86, 2.89, 11.18, 8.14, 39.45, repro,
1996-02-10,-3.20, -2.24, 5.57, 2.48, 1.81, 7.97, repro,
1996-02-11,-0.95, 2.21, 12.81, 3.78, 2.83, 12.22, repro,
1996-04-22,1.21, -0.73, 13.00, 2.59, 1.88, 8.22, repro,
1996-04-23,0.08, -1.37, 9.53, 2.43, 1.72, 7.73, repro,
1996-04-24,-3.09, -1.80, 12.80, 2.43, 1.76, 7.85, repro,
1996-04-25,0.30, -0.79, 11.68, 2.43, 1.74, 7.91, repro,
1996-04-26,0.05, -1.97, 11.53, 2.46, 1.78, 8.06, repro,
1996-04-27,-2.11, -0.86, 13.23, 2.42, 1.74, 7.76, repro,
1996-04-28,-2.58, -0.32, 7.45, 2.49, 1.79, 7.88, repro,
1996-04-29,-0.99, -0.51, 10.90, 2.58, 1.82, 8.02, repro,
1996-04-30,-0.30, -0.01, 4.80, 2.63, 1.87, 8.22, repro,
1996-05-01,-1.45, 0.66, 6.69, 2.52, 1.83, 8.04, repro,
1996-05-02,-0.52, -0.20, 7.73, 2.45, 1.75, 7.96, repro,
1996-05-03,0.60, -1.84, 5.46, 2.47, 1.78, 8.06, repro,
1996-05-04,-0.83, -1.37, 7.72, 2.38, 1.73, 7.81, repro,
1996-05-05,-1.68, -0.35, 5.40, 2.39, 1.72, 7.73, repro,
1996-05-06,0.18, -0.05, 10.85, 2.38, 1.71, 7.62, repro,
1996-05-07,-0.43, -0.06, 9.48, 2.46, 1.76, 7.88, repro,
1996-05-08,-0.74, 0.03, 7.19, 2.41, 1.74, 7.80, repro,
1996-05-09,-2.08, -0.46, 9.02, 3.31, 2.25, 10.36, repro,
1996-05-10,-0.54, 0.74, 10.70, 2.70, 1.97, 8.99, repro,
1996-05-11,-1.83, -1.56, 5.81, 2.98, 2.13, 9.32, repro,
1996-05-12,-0.27, 0.95, 10.69, 2.73, 1.96, 8.95, repro,
1996-05-13,-1.08, -0.28, 11.73, 2.83, 2.01, 9.21, repro,
1996-05-16,-0.41, -1.92, 12.71, 2.45, 1.81, 8.13, repro,
1996-05-17,0.11, -2.97, 19.41, 2.49, 1.82, 8.16, repro,
1996-05-18,0.75, -1.76, 16.80, 2.47, 1.80, 8.13, repro,
1996-05-19,0.22, -0.94, 11.15, 2.40, 1.73, 7.75, repro,
1996-05-20,1.60, -0.49, 14.57, 2.40, 1.77, 7.95, repro,
1996-05-21,1.42, -0.51, 9.95, 2.47, 1.82, 8.13, repro,
1996-05-22,-1.75, 0.12, 14.11, 2.42, 1.74, 7.77, repro,
1996-05-23,-1.09, -0.93, 10.12, 2.52, 1.75, 7.98, repro,
1996-05-24,-0.96, -0.23, 6.16, 2.56, 1.83, 8.12, repro,
1996-05-25,3.05, -1.08, 8.09, 2.66, 1.96, 8.82, repro,
1996-05-26,0.52, -0.32, 9.62, 2.44, 1.76, 7.87, repro,
1996-05-27,0.19, 0.33, 10.57, 2.41, 1.73, 7.88, repro,
1996-05-28,0.25, -0.71, 10.10, 2.42, 1.73, 7.82, repro,
1996-05-29,1.18, 0.10, 12.64, 2.52, 1.81, 8.31, repro,
1996-05-30,-0.77, -1.65, 9.79, 2.41, 1.73, 7.87, repro,
1996-05-31,-0.26, -1.34, 9.93, 2.42, 1.74, 7.91, repro,
1996-06-01,-1.45, -1.09, 12.97, 2.40, 1.72, 7.86, repro,
1996-06-02,1.87, -1.32, 0.31, 2.41, 1.72, 7.85, repro,
1996-06-03,-1.04, -0.65, 9.82, 2.53, 1.79, 8.14, repro,
1996-06-04,2.32, 0.59, 2.83, 2.40, 1.72, 7.96, repro,
1996-06-05,-0.44, 0.01, 14.61, 2.45, 1.79, 8.23, repro,
1996-06-06,1.15, -0.92, 4.17, 2.40, 1.71, 7.88, repro,
1996-06-07,-1.52, -0.61, 23.72, 2.53, 1.77, 8.25, repro,
1996-06-08,1.34, -1.24, 13.48, 2.42, 1.75, 8.10, repro,
1996-06-09,-0.16, -0.55, 19.02, 2.40, 1.73, 7.96, repro,
1996-06-10,0.94, -0.61, 4.17, 2.50, 1.81, 8.34, repro,
1996-06-11,0.76, -0.32, 8.09, 2.48, 1.80, 8.31, repro,
1996-06-12,-0.41, -0.50, 12.79, 2.40, 1.72, 7.93, repro,
1996-06-13,-1.63, -0.45, 15.42, 2.43, 1.75, 7.99, repro,
1996-06-14,0.58, -0.38, 10.67, 2.41, 1.74, 7.97, repro,
1996-06-15,1.37, -0.28, 6.97, 2.42, 1.73, 7.98, repro,
1996-06-16,-0.37, -0.80, 5.32, 2.43, 1.74, 7.99, repro,
1996-06-17,-0.27, 0.40, 14.24, 2.47, 1.81, 8.24, repro,
1996-06-18,-1.53, 0.57, 11.23, 2.41, 1.76, 8.10, repro,
1996-06-19,0.38, -0.80, 16.11, 2.39, 1.71, 7.90, repro,
1996-06-20,-0.06, -0.87, 9.79, 2.39, 1.72, 7.93, repro,
1996-06-21,0.91, -1.43, 11.39, 2.43, 1.75, 8.04, repro,
1996-06-22,-0.97, -2.47, 11.96, 2.44, 1.74, 8.05, repro,
1996-06-23,-0.45, -1.63, 13.31, 2.39, 1.72, 7.93, repro,
1996-06-24,-0.49, -0.92, 12.69, 2.43, 1.73, 8.00, repro,
1996-06-25,0.30, -2.23, 16.17, 2.41, 1.72, 7.92, repro,
1996-06-26,0.77, -1.00, 14.76, 2.41, 1.72, 7.95, repro,
1996-06-27,-0.65, -2.29, 10.23, 2.43, 1.73, 8.08, repro,
1996-06-28,-1.79, -1.32, 15.65, 2.40, 1.73, 7.97, repro,
1996-06-29,-0.53, -0.70, 5.62, 2.39, 1.72, 7.98, repro,
1996-06-30,-0.46, -0.93, 11.14, 2.74, 1.99, 9.24, repro,
1996-07-01,-1.04, -0.75, 8.52, 2.42, 1.74, 8.10, repro,
1996-07-02,-0.78, -2.00, 14.90, 2.44, 1.77, 8.30, repro,
1996-07-03,0.39, -0.21, 7.26, 2.52, 1.75, 8.30, repro,
1996-07-04,-1.55, -0.71, 20.87, 2.42, 1.75, 8.07, repro,
1996-07-05,-0.19, -0.88, 9.55, 2.41, 1.73, 8.01, repro,
1996-07-06,-0.70, -1.62, 10.38, 2.42, 1.74, 8.05, repro,
1996-07-07,-0.09, -1.27, 15.31, 2.40, 1.70, 7.90, repro,
1996-07-08,-1.75, -2.16, 16.52, 2.49, 1.80, 8.33, repro,
1996-07-09,-0.43, -0.90, 20.21, 2.50, 1.81, 8.39, repro,
1996-07-10,0.69, -1.62, 8.49, 2.54, 1.84, 8.37, repro,
1996-07-11,0.46, -2.37, 5.25, 2.39, 1.72, 7.93, repro,
1996-07-12,0.32, -2.77, 14.89, 2.42, 1.73, 8.04, repro,
1996-07-13,-1.96, -2.35, 20.72, 2.45, 1.75, 8.06, repro,
1996-07-14,-0.23, -1.44, 25.82, 2.45, 1.75, 8.06, repro,
1996-07-15,-1.57, -2.53, 22.49, 2.51, 1.77, 8.23, repro,
1996-07-16,-0.53, -3.05, 18.65, 2.49, 1.75, 8.12, repro,
1996-07-17,-0.44, -1.41, 13.27, 2.47, 1.82, 8.35, repro,
1996-07-18,-1.87, -2.43, 20.00, 2.43, 1.73, 7.98, repro,
1996-07-19,-0.62, -0.45, 15.68, 2.43, 1.74, 8.01, repro,
1996-07-20,-0.85, -1.73, 18.73, 2.43, 1.75, 8.04, repro,
1996-07-22,0.35, -2.77, 12.96, 2.42, 1.73, 8.02, repro,
1996-07-23,-0.26, -1.56, 15.97, 2.42, 1.73, 8.04, repro,
1996-07-24,-0.80, -2.56, 20.04, 2.52, 1.77, 8.27, repro,
1996-07-25,-1.54, -1.81, 19.58, 2.43, 1.75, 8.05, repro,
1996-07-26,-0.49, -2.50, 20.11, 2.50, 1.82, 8.30, repro,
1996-07-27,-1.40, -2.55, 18.66, 2.44, 1.74, 8.04, repro,
1996-07-28,-3.15, -0.41, 23.01, 2.45, 1.77, 8.17, repro,
1996-07-29,-1.09, -1.14, 20.65, 2.43, 1.74, 8.06, repro,
1996-07-30,0.44, -0.05, 27.77, 2.46, 1.75, 8.12, repro,
1996-07-31,-0.99, -2.19, 23.22, 2.45, 1.74, 8.10, repro,
1996-08-01,0.46, -2.09, 15.33, 2.43, 1.74, 8.03, repro,
1996-08-02,-2.50, -2.18, 17.57, 2.53, 1.78, 8.16, repro,
1996-08-03,-2.44, -1.53, 24.25, 2.44, 1.74, 7.85, repro,
1996-08-04,-1.29, -2.00, 26.37, 2.52, 1.83, 8.15, repro,
1996-08-05,-0.04, -0.67, 19.16, 2.53, 1.82, 8.28, repro,
1996-08-06,-1.95, -1.19, 17.93, 2.59, 1.86, 8.54, repro,
1996-08-07,-0.84, -0.83, 14.23, 2.52, 1.83, 8.29, repro,
1996-08-08,-0.54, -1.74, 15.49, 2.50, 1.80, 8.27, repro,
1996-08-09,-0.91, -1.01, 17.04, 2.41, 1.72, 7.82, repro,
1996-08-10,-1.20, -2.63, 20.43, 2.43, 1.74, 7.83, repro,
1996-08-11,1.68, -0.85, 12.98, 2.44, 1.74, 7.88, repro,
1996-08-12,-0.82, -0.43, 13.32, 2.39, 1.71, 7.83, repro,
1996-08-13,-0.02, -0.90, 17.25, 2.37, 1.71, 7.76, repro,
1996-08-14,-1.07, -1.71, 15.10, 2.54, 1.73, 8.01, repro,
1996-08-15,-1.05, -1.55, 17.17, 2.46, 1.74, 8.08, repro,
1996-08-16,-1.81, 0.07, 20.86, 2.50, 1.73, 8.15, repro,
1996-08-17,-1.20, -0.83, 19.30, 2.46, 1.72, 8.08, repro,
1996-08-18,-0.93, -1.84, 11.55, 2.52, 1.74, 8.18, repro,
1996-08-19,-2.37, -1.68, 17.04, 2.76, 1.84, 8.58, repro,
1996-08-20,-1.45, -2.04, 15.44, 2.64, 1.81, 8.35, repro,
1996-08-21,-2.09, -1.81, 14.16, 2.73, 1.94, 8.75, repro,
1996-08-22,-1.61, -3.41, 13.53, 2.52, 1.78, 8.12, repro,
1996-08-23,-1.91, -1.82, 15.82, 2.55, 1.75, 8.05, repro,
1996-08-24,-0.29, -1.78, 15.11, 2.70, 1.82, 8.49, repro,
1996-08-25,-0.85, -1.18, 23.49, 2.48, 1.73, 7.91, repro,
1996-08-26,-0.56, -2.92, 19.95, 2.55, 1.81, 8.21, repro,
1996-08-27,-1.24, -2.00, 12.41, 2.54, 1.78, 8.25, repro,
1996-08-28,-1.68, -2.73, 11.86, 2.55, 1.82, 8.26, repro,
1996-08-29,0.70, -3.14, 9.48, 2.70, 1.89, 8.65, repro,
1996-08-30,1.54, 0.90, 19.89, 2.81, 1.99, 8.97, repro,
1996-08-31,-2.80, -0.71, 16.17, 2.51, 1.76, 7.96, repro,
1996-09-01,0.60, -1.85, 10.94, 2.52, 1.76, 8.01, repro,
1996-09-02,0.03, -2.11, 3.69, 2.59, 1.80, 8.27, repro,
1996-09-03,0.29, -1.99, 13.71, 2.67, 1.83, 8.41, repro,
1996-09-04,-2.47, -1.07, 16.09, 2.71, 1.85, 8.47, repro,
1996-09-05,0.40, -0.68, 9.20, 2.55, 1.84, 8.32, repro,
1996-09-06,0.73, -0.82, -2.32, 2.73, 1.98, 8.98, repro,
1996-09-07,1.77, -1.06, 8.97, 2.59, 1.89, 8.48, repro,
1996-09-08,-0.27, -3.35, 8.41, 2.53, 1.84, 8.32, repro,
1996-09-09,-0.21, -1.35, 13.35, 2.72, 1.98, 8.86, repro,
1996-09-10,-1.68, -2.45, 17.66, 2.78, 1.99, 9.27, repro,
1996-09-11,-2.30, -0.98, 12.29, 2.77, 2.03, 9.27, repro,
1996-09-12,-1.66, -0.86, 7.80, 2.61, 1.87, 8.62, repro,
1996-09-13,0.20, -1.35, 17.49, 2.52, 1.82, 8.12, repro,
1996-09-14,1.28, -1.80, 15.73, 2.51, 1.81, 8.03, repro,
1996-09-15,-2.45, -1.74, 5.51, 2.72, 1.86, 8.56, repro,
1996-09-16,-0.55, -2.82, 15.23, 2.57, 1.89, 8.39, repro,
1996-09-17,-0.92, -0.67, 6.52, 2.50, 1.77, 8.02, repro,
1996-09-18,-0.53, -2.12, -0.22, 2.49, 1.82, 8.13, repro,
1996-09-19,0.85, -0.53, 0.98, 2.72, 1.94, 8.90, repro,
1996-10-09,-1.43, -2.08, 11.22, 2.86, 1.99, 8.98, repro,
1996-10-10,3.57, -0.45, 9.30, 2.36, 1.70, 7.66, repro,
1996-10-11,1.02, -0.44, 20.25, 2.36, 1.71, 7.67, repro,
1996-10-12,1.15, -1.80, 18.75, 2.37, 1.70, 7.65, repro,
1996-10-13,1.40, -2.38, 14.92, 2.49, 1.78, 7.99, repro,
1996-10-14,-0.77, -2.11, 16.49, 2.57, 1.83, 8.18, repro,
1996-10-15,0.79, 0.42, 12.73, 2.77, 2.06, 9.20, repro,
1996-10-18,0.04, -3.16, 27.07, 2.37, 1.70, 7.70, repro,
1996-10-19,-0.24, -0.86, 16.02, 2.42, 1.77, 7.89, repro,
1996-10-20,-0.63, -0.96, 11.90, 2.40, 1.76, 7.83, repro,
1996-10-21,0.45, -1.41, 11.02, 2.35, 1.71, 7.71, repro,
1996-10-22,0.49, -1.93, 17.02, 2.47, 1.80, 8.12, repro,
1996-10-24,0.61, -1.61, 21.69, 2.33, 1.68, 7.64, repro,
1996-10-25,-1.06, -0.95, 20.99, 2.35, 1.69, 7.66, repro,
1996-10-26,-0.59, -1.02, 12.59, 2.38, 1.71, 7.71, repro,
1996-10-27,0.05, -0.46, 5.56, 2.33, 1.69, 7.64, repro,
1996-10-28,0.95, 1.05, 9.89, 2.45, 1.76, 7.90, repro,
1996-10-29,0.92, -1.47, 14.96, 2.34, 1.68, 7.63, repro,
1996-10-30,-0.53, -2.85, 9.92, 2.48, 1.77, 7.94, repro,
1996-10-31,0.32, -2.21, 14.84, 2.43, 1.70, 7.72, repro,
1996-11-01,-1.13, -0.71, 12.65, 2.42, 1.74, 7.78, repro,
1996-11-02,-0.30, -1.80, 10.58, 2.63, 1.84, 8.18, repro,
1996-11-03,-0.84, -2.08, 11.02, 2.53, 1.79, 8.02, repro,
1996-11-04,-0.30, 0.86, 16.64, 2.70, 1.85, 8.19, repro,
1996-11-05,-0.41, -2.02, 6.56, 2.52, 1.74, 7.86, repro,
1996-11-06,1.08, -1.21, 15.08, 2.64, 1.85, 8.22, repro,
1996-11-07,-1.90, -1.59, 8.62, 2.57, 1.85, 8.21, repro,
1996-11-08,0.69, 0.02, 3.81, 2.49, 1.84, 8.36, repro,
1996-11-09,0.10, 1.44, 0.53, 2.66, 1.91, 8.71, repro,
1996-11-10,-0.10, -0.59, 7.29, 2.59, 1.82, 7.99, repro,
1996-11-11,1.40, -2.71, 11.26, 2.67, 1.91, 8.35, repro,
1996-11-12,2.80, -1.52, 5.39, 2.41, 1.73, 7.96, repro,
1996-11-13,-2.36, 0.21, 8.16, 2.41, 1.74, 7.82, repro,
1996-11-14,-0.51, 0.22, 10.35, 2.41, 1.75, 7.84, repro,
1996-11-15,1.22, -1.32, 10.60, 2.63, 1.94, 8.51, repro,
1996-11-16,-1.67, -0.48, 20.16, 2.61, 1.95, 8.50, repro,
1996-11-17,0.40, -1.94, 14.65, 2.89, 1.96, 8.83, repro,
1996-11-18,0.84, -0.52, 10.02, 2.90, 1.99, 8.95, repro,
1996-11-19,0.25, -1.88, 8.68, 2.69, 1.94, 8.65, repro,
1996-11-20,0.01, -1.47, 14.81, 2.59, 1.84, 8.05, repro,
1996-11-21,-0.32, -2.09, 14.07, 2.69, 1.89, 8.26, repro,
1996-11-22,0.14, -3.43, 6.08, 2.76, 1.96, 8.94, repro,
1996-11-23,0.23, -2.56, 7.66, 2.71, 1.94, 8.68, repro,
1996-11-24,1.56, -3.96, 5.83, 2.62, 1.89, 8.34, repro,
1996-11-25,-0.81, -0.84, 3.34, 2.85, 2.01, 8.75, repro,
1996-11-26,-1.10, -0.55, 2.24, 2.68, 1.96, 8.57, repro,
1996-11-27,-0.42, -0.83, -1.61, 2.73, 1.86, 8.25, repro,
1996-11-28,-2.48, 0.71, 14.94, 2.65, 1.98, 8.95, repro,
1996-11-29,-2.02, -1.18, 14.33, 2.84, 2.06, 9.17, repro,
1996-11-30,0.35, -0.50, 9.25, 3.12, 2.08, 9.19, repro,
1996-12-01,0.79, -0.95, 15.14, 3.25, 2.39, 10.15, repro,
1996-12-02,-1.98, -0.30, 3.21, 2.74, 1.87, 8.38, repro,
1996-12-03,-3.13, -0.54, 9.57, 2.61, 1.86, 8.29, repro,
1996-12-04,1.40, -1.20, 11.16, 2.89, 1.95, 8.73, repro,
1996-12-05,-2.84, 0.23, 27.27, 2.90, 1.95, 8.73, repro,
1996-12-06,-1.03, -1.23, 12.35, 3.07, 2.12, 9.36, repro,
1996-12-07,-1.63, -1.51, 18.80, 2.69, 1.88, 8.40, repro,
1996-12-08,-3.35, -0.07, 24.56, 2.76, 1.95, 8.64, repro,
1996-12-09,-5.62, -1.41, 14.85, 2.84, 1.95, 8.79, repro,
1996-12-10,-2.78, 0.42, 13.56, 2.91, 1.91, 8.62, repro,
1996-12-11,-2.02, -0.88, 7.75, 2.72, 1.92, 8.48, repro,
1996-12-12,-0.01, 0.12, 1.40, 2.57, 1.85, 8.17, repro,
1996-12-13,-1.42, -0.19, 12.02, 2.54, 1.80, 8.00, repro,
1996-12-14,-0.59, 2.94, 0.47, 2.52, 1.78, 7.94, repro,
1996-12-15,-0.83, 1.50, 0.19, 2.51, 1.77, 8.01, repro,
1996-12-16,0.02, 0.81, -0.86, 2.44, 1.75, 7.83, repro,
1996-12-17,-2.11, 2.10, -2.42, 2.78, 1.86, 8.55, repro,
1996-12-18,-0.47, -0.57, -1.62, 2.44, 1.75, 7.80, repro,
1996-12-19,-0.53, 0.82, 8.00, 2.50, 1.78, 8.00, repro,
1996-12-21,-1.23, -0.82, 7.79, 2.53, 1.79, 8.01, repro,
1996-12-22,0.52, 0.45, 12.61, 2.59, 1.84, 8.06, repro,
1996-12-24,-3.51, 1.13, 22.79, 2.55, 1.78, 8.00, repro,
1996-12-25,-6.38, -0.32, 20.91, 2.53, 1.80, 8.05, repro,
1996-12-26,-7.35, -2.24, 40.91, 2.54, 1.78, 7.97, repro,
1996-12-27,-7.37, -2.79, 42.79, 2.60, 1.80, 8.12, repro,
1996-12-28,-9.89, -2.57, 43.98, 2.52, 1.77, 7.94, repro,
1996-12-29,-10.54, -3.21, 50.53, 2.55, 1.84, 8.14, repro,
1996-12-30,-1.47, -1.00, 4.69, 2.67, 1.87, 8.44, repro,
1996-12-31,-0.37, -0.70, 13.21, 2.70, 1.92, 8.75, repro,
1997-01-03,-0.34, 1.57, 8.81, 2.70, 1.95, 8.86, repro,
1997-01-04,1.55, 2.12, -6.91, 2.53, 1.86, 8.38, repro,
1997-01-05,4.08, 0.17, 4.64, 2.70, 2.07, 9.34, repro,
1997-01-06,0.62, 0.41, 4.31, 2.79, 2.00, 9.30, repro,
1997-01-07,0.04, 2.39, 0.57, 2.63, 1.87, 8.53, repro,
1997-01-08,-0.13, 1.63, 2.93, 2.61, 1.91, 8.60, repro,
1997-01-09,0.13, 1.20, 5.53, 2.78, 2.13, 9.66, repro,
1997-01-10,0.23, 0.77, -3.97, 2.49, 1.80, 8.13, repro,
1997-01-11,-0.95, 1.15, 0.20, 2.58, 1.83, 8.23, repro,
1997-01-12,-1.07, -0.88, 0.73, 2.74, 1.93, 8.83, repro,
1997-01-13,-0.31, -0.74, 3.51, 3.00, 2.10, 9.43, repro,
1997-01-14,0.66, 1.07, 12.03, 5.25, 3.38, 16.81, repro,
1997-01-15,0.81, -0.91, -13.57, 5.47, 3.62, 16.04, repro,
1997-01-21,-7538.87, -7951.40, 265.56, 2.77, 2.00, 8.74, repro,
1997-02-02,-0.40, 2.31, 15.68, 2.60, 1.90, 8.87, repro,
1997-02-03,-2.17, 1.88, 13.84, 3.49, 2.59, 11.77, repro,
1997-02-04,0.85, 1.04, 6.57, 3.11, 2.21, 10.56, repro,
1997-02-05,0.93, 0.56, -0.56, 2.63, 1.92, 9.05, repro,
1997-02-06,-0.28, 1.06, -2.28, 2.55, 1.86, 8.77, repro,
1997-02-07,-1.44, 0.41, 2.45, 2.58, 1.89, 8.87, repro,
1997-02-08,-0.46, 0.35, 9.70, 2.54, 1.86, 8.81, repro,
1997-02-09,-0.56, 0.73, 13.02, 2.60, 1.92, 8.90, repro,
1997-02-10,2.34, 0.63, 12.26, 2.79, 1.97, 9.70, repro,
1997-02-11,-0.50, -0.65, 18.40, 2.53, 1.83, 8.77, repro,
1997-02-12,-0.29, 1.39, 15.99, 2.46, 1.80, 8.50, repro,
1997-02-13,0.91, 0.59, 3.21, 2.49, 1.81, 8.60, repro,
1997-02-14,-0.18, 0.33, 1.39, 2.57, 1.88, 10.87, repro,
1997-02-15,0.95, 1.55, 2.44, 2.75, 1.93, 10.83, repro,
1997-02-16,1.17, 0.44, 6.04, 2.62, 1.86, 10.32, repro,
1997-02-17,-0.03, 1.81, 11.04, 2.63, 1.92, 10.73, repro,
1997-02-18,1.82, -0.22, 4.25, 2.84, 1.94, 11.07, repro,
1997-02-19,0.21, 0.67, 25.09, 2.67, 1.87, 10.45, repro,
1997-02-20,-0.36, 1.24, 14.06, 2.59, 1.84, 10.26, repro,
1997-02-21,0.56, 0.89, -0.19, 2.73, 1.93, 10.73, repro,
1997-02-22,-0.96, -0.07, -5.61, 2.81, 1.99, 11.14, repro,
1997-02-23,-1.27, 0.51, -0.42, 3.04, 2.17, 11.69, repro,
1997-02-24,-0.17, 0.05, 3.66, 2.53, 1.83, 8.34, repro,
1997-02-25,-0.99, 2.50, 15.14, 2.78, 1.97, 8.87, repro,
1997-02-26,-2.18, 1.08, 17.73, 2.73, 2.03, 8.81, repro,
1997-02-27,-1.35, 1.63, 20.80, 3.02, 2.10, 9.37, repro,
1997-02-28,-1.73, 1.17, 7.74, 2.63, 1.89, 8.43, repro,
1997-03-01,-2.15, -0.70, 16.87, 2.69, 1.90, 8.71, repro,
1997-03-02,-0.17, -0.56, 18.26, 2.60, 1.85, 8.35, repro,
1997-03-03,-2.61, 1.35, 20.41, 2.62, 1.89, 8.44, repro,
1997-03-04,-0.82, 1.65, 5.39, 2.72, 1.96, 8.97, repro,
1997-03-05,-3.96, -0.14, 10.90, 2.94, 2.09, 9.33, repro,
1997-03-06,-2.20, 1.04, 18.48, 2.63, 1.92, 8.49, repro,
1997-03-07,-1.34, 0.12, 17.97, 2.47, 1.83, 8.11, repro,
1997-03-08,-1.91, 1.22, 9.36, 2.63, 1.90, 8.48, repro,
1997-03-09,-3.07, -1.63, 21.26, 2.81, 1.96, 9.00, repro,
1997-03-10,-0.17, 0.19, 8.52, 2.62, 1.90, 8.47, repro,
1997-03-11,-1.28, 1.21, 17.41, 2.82, 2.02, 9.10, repro,
1997-03-12,-0.98, 2.31, 6.24, 2.61, 1.94, 8.57, repro,
1997-03-13,-1.25, 0.86, 15.20, 2.51, 1.82, 8.24, repro,
1997-03-14,-0.52, 1.04, 12.32, 2.68, 1.89, 8.71, repro,
1997-03-15,-2.80, -1.00, 22.08, 2.65, 1.84, 8.43, repro,
1997-03-16,-0.87, 1.35, 22.13, 2.49, 1.81, 8.00, repro,
1997-03-17,0.47, 0.97, 16.60, 2.43, 1.76, 7.99, repro,
1997-03-19,-0.24, -0.46, -0.68, 2.43, 1.74, 7.86, repro,
1997-03-20,-0.25, 0.86, 9.83, 2.42, 1.74, 7.97, repro,
1997-03-21,0.23, 0.52, 10.96, 2.43, 1.78, 7.98, repro,
1997-03-22,0.33, 1.11, 9.05, 2.41, 1.74, 7.79, repro,
1997-03-23,-2.01, 1.41, 14.87, 2.41, 1.74, 7.80, repro,
1997-03-24,-1.83, 0.79, 6.26, 2.42, 1.73, 8.11, repro,
1997-03-25,-0.57, 2.51, 10.89, 2.46, 1.78, 8.06, repro,
1997-03-26,-0.20, 1.61, 23.01, 2.50, 1.77, 8.19, repro,
1997-03-27,-0.29, 2.30, 13.66, 2.49, 1.78, 8.01, repro,
1997-03-28,-1.46, 1.10, 15.68, 2.42, 1.73, 7.90, repro,
1997-03-29,-1.04, 1.23, 15.96, 2.46, 1.75, 7.96, repro,
1997-03-30,-1.04, -0.64, 13.70, 2.42, 1.73, 7.85, repro,
1997-03-31,-2.50, 0.57, 20.20, 3.25, 2.34, 10.62, repro,
1997-04-01,-1.63, 1.81, 15.49, 2.46, 1.78, 8.08, repro,
1997-04-02,-1.93, 1.30, 9.92, 2.53, 1.79, 8.21, repro,
1997-04-03,-0.98, 2.29, 10.60, 2.41, 1.75, 7.83, repro,
1997-04-04,-0.88, 1.51, 14.35, 2.44, 1.76, 7.99, repro,
1997-04-05,0.28, 1.36, 10.90, 2.49, 1.82, 8.27, repro,
1997-04-06,-1.09, 1.21, 14.00, 2.42, 1.73, 8.02, repro,
1997-04-07,-0.29, 1.17, 14.45, 2.55, 1.86, 8.44, repro,
1997-04-08,-1.63, 2.11, 6.50, 2.52, 1.83, 8.14, repro,
1997-04-09,-0.32, 2.21, 8.41, 2.49, 1.82, 8.13, repro,
1997-04-10,0.94, 2.27, 6.76, 2.42, 1.74, 7.95, repro,
1997-04-11,-0.93, 1.03, 6.36, 2.43, 1.75, 7.95, repro,
1997-04-12,-1.05, 2.38, 13.34, 2.49, 1.80, 7.98, repro,
1997-04-13,-0.10, 0.67, 13.89, 2.49, 1.79, 7.99, repro,
1997-04-14,-0.90, 0.65, 15.34, 2.49, 1.82, 8.13, repro,
1997-04-15,-0.52, 2.38, 19.63, 2.54, 1.83, 8.24, repro,
1997-04-16,0.94, 0.72, 12.15, 2.48, 1.80, 8.00, repro,
1997-04-17,-0.87, 1.67, 19.94, 2.49, 1.79, 8.04, repro,
1997-04-18,-1.88, 0.78, 7.01, 2.53, 1.83, 8.21, repro,
1997-04-19,-1.10, 0.29, 19.56, 2.45, 1.78, 8.10, repro,
1997-04-20,-0.66, 2.41, 16.71, 2.41, 1.74, 7.82, repro,
1997-04-21,-1.30, 1.89, 2.24, 2.50, 1.82, 8.12, repro,
1997-04-22,-2.46, 1.45, 9.97, 2.50, 1.79, 8.03, repro,
1997-04-23,-0.71, 0.80, 16.99, 2.47, 1.76, 7.95, repro,
1997-04-24,-0.23, 1.46, 7.95, 2.52, 1.81, 8.06, repro,
1997-04-25,-1.39, 1.67, 15.53, 2.59, 1.84, 8.18, repro,
1997-04-26,-0.43, 1.62, 12.04, 2.59, 1.83, 8.21, repro,
1997-04-27,2.17, 2.12, 16.33, 2.44, 1.74, 7.92, repro,
1997-04-28,-0.91, 1.21, 19.14, 2.38, 1.73, 7.82, repro,
1997-04-29,-0.84, 1.26, 20.63, 2.44, 1.80, 8.02, repro,
1997-05-01,-1.35, 1.87, 19.62, 2.35, 1.72, 7.78, repro,
1997-05-02,-1.14, 1.81, 10.30, 2.43, 1.75, 7.82, repro,
1997-05-03,-0.19, 0.85, 14.29, 2.37, 1.73, 7.80, repro,
1997-05-05,0.92, 0.37, 12.89, 2.46, 1.76, 7.95, repro,
1997-05-06,1.10, -0.98, 14.12, 2.50, 1.76, 8.00, repro,
1997-05-07,-0.87, -0.08, 10.21, 2.41, 1.72, 7.79, repro,
1997-05-08,-1.07, -1.03, 13.47, 2.50, 1.78, 8.06, repro,
1997-05-09,-2.09, 0.34, 15.87, 2.42, 1.72, 7.87, repro,
1997-05-11,-2.84, -3.02, 20.61, 2.48, 1.76, 7.96, repro,
1997-05-12,0.14, -1.58, 19.23, 2.41, 1.72, 7.77, repro,
1997-05-13,-1.02, -0.41, 25.43, 2.41, 1.72, 7.77, repro,
1997-05-14,-2.37, -1.36, 26.89, 2.41, 1.72, 7.83, repro,
1997-05-15,-1.38, -1.76, 23.04, 2.41, 1.76, 7.95, repro,
1997-05-16,-1.46, -1.72, 18.01, 2.38, 1.71, 7.81, repro,
1997-05-17,0.35, -1.02, 21.09, 2.40, 1.75, 7.97, repro,
1997-05-18,-1.35, -2.19, 19.27, 2.39, 1.72, 7.79, repro,
1997-05-19,-0.48, -1.50, 24.96, 2.45, 1.83, 8.28, repro,
1997-05-20,-0.52, -0.31, 21.05, 2.46, 1.79, 8.11, repro,
1997-05-21,-1.36, -2.56, 22.01, 2.43, 1.77, 7.98, repro,
1997-05-22,-0.80, -2.46, 17.30, 2.40, 1.77, 7.91, repro,
1997-05-23,-1.08, -2.69, 26.46, 2.48, 1.80, 8.02, repro,
1997-05-24,-1.10, -1.60, 23.45, 2.41, 1.76, 7.88, repro,
1997-05-25,-0.80, -2.14, 20.70, 2.41, 1.76, 7.88, repro,
1997-05-26,-1.95, -2.00, 17.80, 2.49, 1.79, 8.11, repro,
1997-05-27,-2.24, -3.01, 23.20, 2.51, 1.82, 8.24, repro,
1997-05-28,-1.84, -2.84, 25.89, 2.40, 1.76, 7.92, repro,
1997-05-29,-1.32, -1.47, 29.99, 2.40, 1.72, 7.78, repro,
1997-05-30,-2.41, -3.68, 24.16, 2.43, 1.73, 7.86, repro,
1997-05-31,1.61, -0.28, 14.81, 2.46, 1.75, 7.99, repro,
1997-06-01,0.16, -1.37, 19.39, 2.40, 1.74, 7.99, repro,
1997-06-02,-1.03, -2.25, 30.51, 2.41, 1.75, 8.01, repro,
1997-06-03,1.97, -2.19, 23.90, 2.38, 1.71, 7.80, repro,
1997-06-04,-1.23, -3.57, 30.72, 2.39, 1.71, 7.82, repro,
1997-06-05,-0.39, -1.76, 17.72, 2.40, 1.72, 7.82, repro,
1997-06-06,-3.35, -2.37, 23.62, 2.40, 1.73, 7.85, repro,
1997-06-07,-1.46, -2.56, 27.83, 2.43, 1.77, 8.48, repro,
1997-06-08,-1.75, -1.96, 27.98, 2.39, 1.72, 7.80, repro,
1997-06-09,-2.12, -1.91, 23.06, 2.45, 1.80, 8.03, repro,
1997-06-10,-1.98, -2.43, 26.76, 2.55, 1.86, 8.30, repro,
1997-06-11,-2.47, -2.84, 23.86, 2.49, 1.79, 8.06, repro,
1997-06-12,-2.35, -2.23, 23.16, 2.42, 1.73, 7.94, repro,
1997-06-13,-2.06, -2.06, 25.00, 2.36, 1.71, 7.78, repro,
1997-06-14,-2.27, -2.36, 24.73, 2.39, 1.77, 7.95, repro,
1997-06-15,-3.16, -1.48, 31.16, 2.39, 1.74, 7.84, repro,
1997-06-16,-1.16, -1.69, 24.47, 2.39, 1.71, 7.81, repro,
1997-06-17,0.25, -1.13, 22.53, 2.40, 1.74, 7.90, repro,
1997-06-18,0.53, -1.04, 26.67, 2.37, 1.70, 7.79, repro,
1997-06-19,-2.12, -1.34, 25.94, 2.38, 1.70, 7.73, repro,
1997-06-20,-1.37, -2.08, 26.47, 2.44, 1.78, 8.01, repro,
1997-06-21,-1.57, -3.57, 22.63, 2.39, 1.73, 7.86, repro,
1997-06-22,-1.97, -2.00, 25.51, 2.46, 1.74, 7.93, repro,
1997-06-23,-1.37, -1.03, 19.03, 2.40, 1.72, 7.78, repro,
1997-06-24,-3.60, -1.89, 20.61, 2.42, 1.75, 7.94, repro,
1997-06-25,-1.13, -2.73, 27.26, 2.47, 1.81, 8.15, repro,
1997-06-26,1.11, -1.74, 29.12, 2.38, 1.73, 7.78, repro,
1997-06-27,-2.07, -2.47, 29.28, 2.45, 1.81, 8.10, repro,
1997-06-28,-3.10, -2.06, 23.89, 2.47, 1.81, 8.13, repro,